Погода в Талалаевке

Украина / Черниговская область     50°50′13″N   33°08′26″E
темп.,
°C
ветер,
м/с
пор.,
м/с
влажн.,
%
обл.,
%
осадки,
мм/ч
давл.,
гПа
погр.,
м
21 января, пт
пт2123:00−3ююз5997100 1.3 1006335
02:00−2ююз41097100 3.0 1004379
05:00−2зюз5109145 0.3 1003509
08:00−5зюз61293100 0.3 1004504
11:00−4юз81492100 0.1 1004755
14:00−3юз91492100 0.4 10031049
17:00−3юз91589100 0.2 1002888
20:00−3зюз81590100 0.6 1002853
22 января, сб
сб2223:00−3зюз71394100 0.1 1004758
02:00−4зюз6129392 0.4 1004521
05:00−4юз599699 0.4 1004420
08:00−4зюз489699 0.6 1006321
11:00−3з579099 0.3 1008582
14:00−3з4687100 0.4 1009692
17:00−6юз369577 0.1 1011100
20:00−8ююз249898 0.1 101358
23 января, вс
вс2323:00−7юз229786 0.2 101445
02:00−9ссз239790 0.3 101575
05:00−10с239775 0.1 101765
08:00−13ссв239873 0.1 102051
11:00−8всв349493 0.0 1022182
14:00−6св359393 0.1 1024288
17:00−10ссв379641 0.0 1027104
20:00−11ссв389648 0.0 1029135
24 января, пн
пн2423:00−12ссв4109599 0.0 1030188
02:00−11ссв51294100 0.0 1029253
05:00−9с61590100 0.0 1029393
08:00−8ссв71694100 0.3 1029460
11:00−7ссв61294100 0.8 1029453
14:00−6ссв5109398 0.9 1028421
17:00−8ссв5109570 0.0 1029243
20:00−11ссв389788 0.0 1031148
25 января, вт
вт2523:00−12ссв379778 0.0 1030118
02:00−13ссв369774 0.0 1029105
05:00−13с3696100 0.0 1028126
08:00−13с3696100 0.0 1028122
11:00−10с3492100 0.0 1027185
14:00−8ссз2390100 0.0 1025246
17:00−10сз2296100 0.0 102431
20:00−12з119786 0.0 102310